GFSNW_500_temp_126.txt.gz
Temp
-18 -18 -18 -18 -18 -18 -17 -17 -17 -17 -17 -17 -17 -17 -17 -18 -19 -19 -19 -20 -20 -20 -20 -20 -20 -21 -21 -21 -21 -21 -21 -21 -21 -22 -23 -23 -23 -23 -23 -23 -22 -22 -23 -22
-18 -19 -19 -18 -18 -18 -18 -17 -17 -17 -17 -18 -18 -18 -17 -18 -20 -20 -20 -20 -20 -20 -20 -20 -21 -21 -21 -22 -22 -21 -21 -22 -22 -23 -24 -23 -22 -23 -23 -23 -23 -22 -23 -22
-19 -19 -19 -18 -18 -18 -18 -18 -18 -18 -18 -18 -18 -19 -19 -19 -19 -20 -21 -21 -21 -21 -21 -21 -21 -21 -22 -22 -22 -22 -21 -23 -23 -23 -23 -23 -22 -22 -22 -22 -21 -22 -23 -21
-20 -19 -19 -19 -19 -19 -19 -19 -19 -19 -18 -19 -19 -19 -20 -20 -20 -20 -21 -21 -21 -21 -21 -21 -21 -22 -22 -23 -22 -23 -22 -24 -24 -24 -23 -23 -23 -23 -22 -23 -22 -22 -22 -21
-20 -20 -20 -19 -19 -19 -19 -19 -19 -19 -19 -19 -20 -20 -21 -21 -21 -20 -21 -21 -21 -21 -21 -22 -22 -22 -22 -23 -23 -23 -23 -24 -24 -25 -24 -24 -24 -24 -23 -23 -23 -22 -21 -21
-20 -20 -20 -20 -20 -20 -19 -20 -20 -20 -20 -20 -21 -22 -22 -21 -21 -22 -22 -22 -22 -22 -22 -22 -22 -22 -23 -22 -23 -23 -24 -24 -24 -25 -25 -24 -24 -24 -23 -22 -22 -22 -21 -21
-21 -21 -21 -21 -20 -20 -20 -21 -21 -21 -22 -22 -22 -22 -22 -22 -22 -22 -22 -22 -22 -22 -22 -22 -23 -23 -23 -23 -24 -23 -25 -26 -25 -25 -24 -24 -24 -24 -23 -22 -23 -22 -22 -21
-22 -22 -22 -22 -22 -22 -22 -22 -23 -23 -22 -22 -22 -22 -22 -23 -23 -23 -22 -22 -23 -22 -23 -23 -23 -23 -24 -24 -24 -25 -26 -26 -26 -26 -25 -24 -24 -24 -23 -23 -23 -22 -22 -22
-23 -23 -23 -22 -23 -23 -23 -23 -23 -23 -23 -23 -23 -23 -23 -24 -23 -23 -22 -23 -23 -23 -23 -23 -23 -24 -24 -25 -25 -26 -26 -26 -27 -26 -25 -25 -24 -24 -24 -23 -23 -23 -22 -22
-24 -24 -24 -24 -24 -24 -25 -25 -24 -24 -23 -24 -23 -23 -24 -24 -24 -23 -23 -23 -24 -23 -23 -24 -24 -24 -24 -25 -25 -26 -26 -26 -26 -26 -25 -25 -25 -25 -24 -24 -23 -23 -22 -22
-25 -25 -25 -25 -25 -24 -25 -24 -24 -24 -24 -24 -24 -24 -24 -24 -24 -24 -24 -24 -24 -24 -24 -24 -24 -25 -25 -26 -26 -26 -26 -27 -27 -26 -26 -25 -25 -25 -24 -24 -23 -23 -22 -23
-26 -26 -25 -25 -25 -25 -25 -25 -25 -25 -24 -24 -24 -25 -24 -24 -24 -24 -24 -24 -24 -24 -25 -25 -25 -26 -26 -26 -26 -26 -27 -27 -27 -27 -26 -25 -25 -25 -25 -24 -25 -23 -23 -23
-26 -26 -26 -26 -26 -25 -25 -25 -25 -25 -25 -25 -25 -25 -25 -24 -24 -25 -25 -25 -25 -25 -25 -25 -26 -26 -26 -26 -27 -27 -27 -27 -27 -27 -27 -26 -26 -25 -25 -24 -24 -25 -23 -23
-27 -27 -26 -26 -26 -26 -25 -25 -25 -25 -25 -25 -25 -25 -25 -25 -25 -25 -25 -25 -25 -25 -26 -26 -26 -26 -26 -27 -27 -27 -28 -28 -28 -28 -27 -27 -26 -25 -25 -25 -24 -24 -24 -24
-27 -27 -27 -27 -26 -26 -26 -26 -26 -26 -26 -25 -25 -25 -25 -25 -25 -25 -26 -26 -26 -26 -26 -26 -26 -27 -27 -27 -27 -28 -29 -29 -29 -28 -28 -27 -27 -26 -26 -25 -25 -24 -24 -24
-29 -28 -28 -27 -27 -27 -27 -26 -26 -26 -26 -26 -26 -26 -26 -26 -26 -26 -26 -26 -26 -27 -27 -27 -27 -27 -26 -27 -28 -28 -29 -29 -29 -28 -28 -27 -27 -27 -26 -26 -25 -24 -24 -23
-29 -29 -29 -28 -28 -28 -28 -27 -27 -27 -27 -27 -27 -26 -26 -26 -26 -27 -27 -27 -27 -27 -27 -27 -27 -27 -27 -28 -28 -29 -30 -29 -29 -28 -28 -28 -27 -27 -26 -25 -25 -24 -24 -23
-30 -30 -30 -29 -29 -28 -28 -28 -28 -27 -27 -27 -27 -27 -27 -27 -27 -27 -27 -27 -27 -27 -27 -27 -27 -28 -28 -28 -29 -29 -30 -29 -29 -28 -28 -28 -27 -27 -27 -26 -26 -25 -25 -24
-31 -31 -31 -30 -30 -29 -29 -29 -28 -28 -27 -27 -28 -28 -28 -28 -28 -28 -28 -27 -27 -28 -28 -28 -28 -28 -28 -28 -29 -29 -29 -29 -28 -27 -28 -28 -27 -27 -27 -26 -26 -26 -26 -25
-31 -31 -30 -31 -31 -31 -30 -30 -29 -29 -28 -29 -28 -28 -29 -29 -28 -28 -28 -28 -28 -29 -29 -29 -29 -29 -29 -28 -28 -29 -29 -28 -28 -28 -28 -28 -27 -27 -27 -27 -26 -25 -25 -25
-31 -31 -31 -31 -31 -31 -31 -31 -30 -29 -29 -29 -29 -29 -29 -29 -28 -29 -28 -29 -29 -29 -29 -29 -28 -29 -29 -28 -28 -28 -28 -28 -28 -27 -27 -27 -27 -27 -27 -26 -26 -25 -25 -25
-31 -31 -31 -31 -31 -31 -31 -31 -30 -30 -30 -30 -30 -29 -29 -29 -29 -29 -29 -29 -29 -29 -29 -29 -28 -28 -28 -29 -28 -28 -28 -28 -28 -28 -27 -27 -27 -27 -26 -26 -26 -26 -26 -26
-31 -32 -32 -31 -31 -31 -31 -31 -30 -30 -30 -30 -29 -29 -29 -30 -29 -29 -29 -29 -29 -29 -29 -28 -28 -28 -28 -28 -28 -28 -28 -28 -28 -28 -28 -28 -27 -27 -27 -26 -26 -26 -26 -26
-32 -32 -32 -31 -31 -31 -31 -31 -31 -31 -30 -30 -29 -29 -29 -30 -30 -29 -29 -29 -29 -29 -29 -28 -28 -28 -28 -28 -28 -28 -28 -28 -28 -28 -28 -28 -28 -27 -27 -27 -27 -26 -26 -26
-32 -32 -31 -31 -31 -31 -31 -31 -31 -30 -30 -30 -29 -29 -30 -30 -29 -29 -29 -29 -29 -29 -29 -29 -28 -28 -28 -28 -28 -28 -28 -28 -28 -28 -28 -28 -28 -28 -28 -27 -27 -27 -27 -27
-32 -31 -32 -32 -32 -32 -31 -31 -30 -30 -30 -30 -30 -30 -30 -29 -29 -29 -29 -29 -29 -29 -29 -29 -28 -28 -28 -28 -28 -28 -28 -28 -28 -28 -28 -28 -28 -28 -27 -27 -27 -27 -27 -27
-32 -32 -32 -31 -31 -31 -31 -31 -31 -30 -30 -30 -30 -30 -30 -30 -29 -29 -29 -29 -29 -28 -28 -28 -28 -28 -28 -28 -28 -29 -29 -28 -28 -28 -28 -28 -28 -28 -28 -28 -28 -28 -28 -28

GFSNW_500_temp_132.txt.gz
Temp
-20 -21 -21 -21 -20 -19 -18 -18 -18 -18 -18 -18 -17 -17 -17 -17 -17 -17 -17 -17 -17 -17 -18 -19 -19 -18 -19 -19 -19 -18 -19 -19 -20 -20 -20 -19 -20 -20 -20 -22 -23 -23 -23 -21
-20 -20 -21 -20 -20 -19 -19 -19 -18 -18 -18 -18 -18 -18 -18 -17 -17 -17 -17 -17 -17 -17 -18 -19 -19 -19 -19 -20 -19 -19 -19 -20 -20 -20 -20 -20 -20 -21 -23 -23 -23 -23 -23 -22
-20 -20 -20 -20 -19 -20 -19 -19 -19 -18 -18 -18 -18 -18 -18 -18 -17 -17 -17 -17 -18 -18 -18 -19 -19 -20 -21 -20 -19 -19 -20 -21 -20 -20 -20 -20 -20 -22 -24 -24 -23 -22 -23 -22
-19 -20 -20 -20 -20 -19 -19 -19 -18 -18 -18 -18 -18 -18 -17 -18 -18 -18 -17 -18 -18 -18 -19 -19 -20 -21 -21 -20 -20 -20 -20 -21 -21 -21 -20 -20 -20 -22 -24 -24 -23 -23 -22 -23
-21 -20 -20 -19 -20 -20 -19 -19 -19 -19 -19 -18 -18 -18 -18 -18 -18 -19 -19 -19 -20 -19 -20 -20 -20 -21 -21 -21 -21 -21 -21 -21 -21 -22 -21 -20 -21 -23 -24 -24 -23 -23 -23 -23
-21 -21 -20 -20 -20 -20 -19 -19 -19 -19 -19 -19 -19 -18 -18 -19 -20 -19 -19 -20 -20 -20 -21 -21 -21 -21 -22 -21 -22 -21 -21 -21 -21 -21 -21 -21 -22 -24 -25 -24 -24 -23 -23 -22
-22 -21 -21 -20 -20 -20 -20 -20 -19 -19 -19 -19 -19 -19 -20 -21 -20 -20 -20 -21 -21 -21 -21 -21 -21 -22 -22 -22 -22 -22 -22 -22 -21 -22 -22 -22 -24 -25 -25 -24 -24 -24 -23 -23
-21 -21 -21 -21 -21 -20 -20 -20 -19 -20 -20 -20 -20 -20 -20 -20 -20 -20 -21 -22 -22 -21 -22 -22 -22 -22 -22 -22 -22 -22 -22 -22 -22 -22 -23 -24 -25 -26 -25 -25 -24 -24 -24 -23
-22 -22 -21 -21 -21 -21 -21 -20 -21 -21 -21 -20 -20 -20 -21 -21 -21 -22 -22 -22 -22 -22 -22 -22 -23 -23 -23 -23 -22 -22 -22 -23 -23 -23 -24 -25 -25 -26 -26 -25 -24 -24 -24 -24
-22 -22 -22 -21 -21 -21 -21 -21 -21 -21 -20 -21 -21 -21 -22 -22 -22 -22 -23 -23 -23 -23 -23 -23 -23 -23 -23 -23 -22 -23 -23 -23 -24 -24 -25 -25 -26 -26 -26 -26 -25 -24 -24 -24
-23 -22 -22 -22 -22 -22 -22 -22 -22 -22 -22 -23 -23 -23 -23 -23 -23 -24 -24 -23 -23 -23 -23 -23 -23 -23 -23 -23 -23 -23 -23 -24 -24 -24 -25 -25 -26 -26 -26 -26 -26 -25 -25 -25
-24 -23 -23 -23 -23 -23 -23 -23 -24 -24 -24 -24 -24 -24 -24 -24 -24 -23 -24 -23 -23 -23 -24 -24 -23 -23 -23 -23 -24 -24 -24 -24 -25 -25 -26 -26 -26 -26 -27 -26 -26 -26 -26 -25
-25 -25 -24 -24 -24 -24 -24 -24 -24 -24 -24 -24 -24 -24 -24 -24 -24 -24 -24 -24 -24 -24 -24 -24 -24 -24 -24 -24 -24 -24 -25 -25 -26 -26 -26 -27 -27 -27 -27 -27 -27 -26 -26 -25
-26 -26 -25 -25 -25 -25 -25 -25 -25 -25 -25 -25 -25 -25 -25 -25 -24 -24 -24 -24 -25 -24 -24 -24 -24 -24 -24 -24 -24 -25 -25 -26 -26 -26 -27 -27 -27 -27 -27 -27 -27 -27 -26 -26
-26 -26 -26 -26 -25 -25 -25 -25 -25 -25 -25 -25 -25 -25 -25 -24 -24 -24 -25 -25 -25 -24 -24 -24 -24 -24 -24 -25 -25 -26 -26 -26 -26 -26 -27 -27 -28 -28 -28 -28 -28 -27 -26 -26
-27 -27 -27 -27 -27 -26 -26 -26 -26 -26 -25 -25 -25 -25 -25 -25 -25 -25 -25 -25 -25 -25 -25 -25 -25 -25 -25 -25 -26 -26 -26 -26 -26 -26 -27 -27 -29 -29 -29 -28 -28 -27 -27 -26
-28 -28 -27 -27 -27 -27 -27 -26 -26 -26 -26 -26 -25 -25 -25 -25 -26 -26 -25 -25 -25 -25 -25 -25 -25 -25 -26 -26 -26 -26 -26 -27 -27 -27 -28 -29 -30 -29 -29 -28 -28 -27 -27 -26
-28 -28 -28 -28 -27 -27 -27 -26 -26 -26 -26 -26 -26 -26 -26 -26 -26 -26 -25 -26 -26 -25 -25 -25 -26 -26 -26 -27 -27 -27 -27 -27 -28 -28 -29 -30 -30 -29 -29 -28 -28 -28 -27 -27
-29 -28 -28 -28 -28 -27 -27 -27 -27 -27 -26 -26 -26 -26 -26 -26 -26 -26 -26 -26 -26 -26 -26 -27 -27 -27 -27 -27 -27 -27 -28 -28 -28 -29 -29 -30 -29 -29 -29 -29 -28 -28 -28 -27
-29 -29 -28 -28 -28 -28 -27 -27 -27 -27 -27 -27 -26 -26 -26 -26 -26 -26 -26 -26 -27 -27 -27 -27 -27 -28 -28 -28 -28 -28 -28 -28 -28 -29 -29 -29 -29 -29 -29 -28 -28 -28 -28 -28
-29 -29 -29 -29 -28 -28 -28 -28 -27 -27 -27 -27 -27 -27 -27 -27 -27 -27 -27 -27 -27 -27 -27 -27 -28 -29 -28 -28 -29 -29 -29 -29 -29 -29 -29 -29 -29 -28 -28 -28 -28 -28 -28 -28
-30 -30 -30 -30 -30 -29 -29 -29 -28 -28 -28 -28 -28 -28 -27 -27 -27 -27 -28 -28 -28 -28 -28 -28 -28 -29 -28 -28 -28 -29 -29 -29 -29 -29 -29 -29 -28 -28 -28 -28 -28 -28 -28 -28
-31 -30 -30 -31 -30 -30 -29 -29 -29 -29 -29 -29 -28 -28 -28 -28 -28 -28 -28 -29 -29 -29 -28 -28 -29 -28 -28 -28 -28 -28 -29 -29 -29 -29 -29 -29 -29 -29 -28 -28 -28 -28 -27 -27
-31 -31 -30 -31 -31 -30 -30 -30 -30 -30 -29 -29 -29 -29 -29 -29 -29 -29 -29 -29 -29 -29 -29 -29 -29 -28 -28 -28 -28 -28 -28 -28 -28 -28 -29 -29 -29 -29 -29 -28 -28 -28 -28 -28
-31 -31 -31 -31 -30 -31 -31 -30 -30 -30 -30 -30 -30 -30 -30 -30 -29 -30 -29 -29 -29 -29 -29 -29 -29 -29 -29 -28 -28 -28 -28 -29 -29 -29 -29 -29 -28 -28 -28 -28 -28 -28 -28 -28
-32 -32 -31 -31 -31 -31 -31 -31 -31 -31 -31 -30 -30 -30 -30 -30 -30 -30 -29 -29 -29 -29 -29 -29 -29 -29 -29 -29 -29 -29 -29 -29 -29 -29 -29 -29 -29 -29 -29 -29 -28 -28 -28 -28
-32 -31 -31 -31 -31 -31 -31 -31 -31 -31 -31 -31 -31 -30 -30 -30 -30 -29 -29 -29 -29 -29 -29 -29 -29 -29 -29 -29 -29 -29 -29 -29 -29 -29 -29 -30 -30 -30 -30 -30 -30 -29 -29 -29

GFSNW_500_temp_135.txt.gz
Temp
-21 -21 -21 -21 -20 -20 -21 -21 -21 -21 -20 -18 -18 -18 -17 -18 -17 -17 -17 -17 -17 -17 -17 -17 -17 -17 -17 -18 -19 -19 -20 -20 -21 -20 -19 -19 -19 -19 -19 -19 -19 -20 -22 -21
-20 -20 -20 -20 -20 -20 -21 -21 -22 -22 -20 -20 -19 -18 -17 -18 -17 -17 -17 -18 -18 -17 -17 -17 -17 -17 -17 -18 -19 -19 -20 -21 -21 -21 -20 -20 -20 -20 -20 -20 -19 -21 -22 -22
-20 -20 -20 -20 -20 -21 -22 -22 -22 -22 -21 -19 -19 -18 -19 -17 -17 -18 -18 -18 -18 -17 -17 -17 -18 -17 -18 -18 -19 -19 -20 -21 -21 -21 -20 -20 -20 -20 -20 -20 -20 -21 -23 -22
-20 -20 -20 -21 -21 -22 -22 -22 -22 -21 -20 -19 -19 -18 -18 -18 -17 -18 -18 -18 -18 -18 -18 -18 -18 -18 -18 -19 -19 -20 -20 -21 -21 -21 -20 -20 -20 -21 -21 -21 -21 -22 -23 -23
-20 -21 -21 -21 -22 -22 -22 -22 -21 -20 -20 -20 -19 -18 -18 -18 -18 -18 -18 -18 -18 -18 -18 -19 -19 -19 -20 -19 -19 -20 -21 -21 -21 -21 -21 -21 -21 -21 -21 -21 -23 -24 -24 -23
-21 -20 -21 -22 -21 -21 -22 -21 -20 -20 -20 -19 -19 -18 -18 -18 -18 -18 -18 -18 -18 -19 -18 -19 -19 -20 -20 -20 -20 -21 -21 -22 -21 -21 -21 -21 -21 -21 -21 -21 -23 -24 -24 -23
-23 -22 -22 -21 -20 -20 -20 -20 -20 -20 -20 -19 -19 -19 -19 -19 -19 -19 -19 -19 -19 -19 -19 -20 -20 -20 -21 -21 -21 -21 -22 -22 -22 -22 -21 -21 -21 -22 -22 -22 -23 -24 -24 -23
-22 -22 -22 -21 -21 -21 -21 -20 -20 -20 -19 -19 -19 -19 -19 -19 -19 -20 -20 -20 -20 -20 -20 -21 -21 -22 -22 -21 -22 -22 -22 -22 -22 -22 -22 -22 -22 -22 -22 -23 -24 -25 -25 -24
-22 -22 -21 -21 -21 -21 -20 -20 -20 -20 -20 -20 -20 -20 -20 -20 -20 -20 -20 -20 -21 -20 -21 -22 -22 -22 -22 -22 -22 -23 -22 -22 -22 -22 -22 -22 -23 -23 -24 -24 -25 -25 -25 -25
-22 -22 -22 -22 -21 -21 -21 -20 -20 -20 -20 -20 -20 -20 -20 -20 -20 -20 -20 -21 -22 -21 -22 -22 -22 -22 -22 -23 -23 -23 -23 -23 -23 -22 -23 -23 -23 -23 -24 -25 -25 -25 -25 -25
-23 -22 -22 -22 -22 -21 -21 -21 -21 -21 -21 -21 -20 -21 -21 -21 -21 -21 -22 -22 -22 -23 -23 -23 -22 -22 -23 -23 -23 -23 -23 -23 -23 -23 -23 -24 -24 -24 -25 -25 -25 -26 -26 -26
-23 -23 -22 -22 -22 -22 -22 -21 -21 -21 -21 -21 -21 -21 -21 -22 -22 -22 -22 -23 -23 -23 -23 -23 -23 -23 -23 -24 -23 -23 -23 -23 -23 -23 -24 -24 -24 -25 -25 -26 -26 -26 -26 -26
-24 -23 -23 -23 -22 -22 -22 -22 -22 -21 -21 -22 -22 -22 -23 -23 -23 -23 -23 -24 -23 -23 -23 -23 -23 -23 -24 -24 -24 -23 -23 -23 -24 -24 -24 -25 -25 -26 -26 -26 -26 -26 -26 -26
-25 -24 -24 -23 -23 -23 -23 -23 -23 -23 -23 -22 -23 -23 -23 -24 -24 -24 -24 -23 -24 -24 -24 -24 -24 -24 -24 -24 -24 -24 -24 -24 -24 -24 -25 -25 -26 -26 -27 -27 -27 -27 -27 -27
-26 -25 -25 -25 -24 -24 -23 -23 -24 -23 -23 -23 -24 -24 -24 -25 -25 -24 -24 -24 -24 -24 -24 -25 -25 -24 -24 -24 -24 -24 -24 -24 -25 -25 -25 -26 -26 -26 -27 -27 -28 -28 -28 -28
-27 -26 -26 -25 -25 -24 -24 -24 -24 -24 -24 -24 -24 -24 -25 -25 -25 -25 -24 -24 -24 -25 -25 -25 -25 -25 -25 -25 -24 -24 -25 -25 -25 -25 -26 -26 -27 -27 -27 -28 -29 -29 -29 -28
-27 -27 -27 -26 -26 -26 -26 -25 -25 -25 -25 -25 -25 -25 -25 -25 -25 -25 -25 -25 -25 -25 -25 -25 -25 -25 -25 -25 -25 -25 -25 -25 -26 -26 -27 -27 -27 -28 -29 -30 -30 -29 -29 -28
-27 -27 -27 -27 -27 -26 -26 -26 -26 -26 -26 -25 -25 -26 -26 -25 -25 -25 -25 -26 -26 -25 -25 -25 -25 -25 -25 -25 -25 -25 -26 -27 -27 -27 -27 -28 -29 -30 -30 -30 -29 -29 -29 -28
-28 -28 -27 -27 -27 -27 -27 -26 -26 -26 -26 -26 -26 -26 -26 -26 -26 -26 -26 -26 -26 -25 -25 -26 -26 -26 -25 -26 -26 -27 -27 -27 -28 -28 -28 -28 -29 -30 -30 -29 -29 -29 -29 -28
-28 -28 -28 -28 -27 -27 -27 -27 -27 -27 -26 -27 -26 -26 -26 -26 -27 -26 -26 -26 -26 -26 -26 -26 -26 -26 -26 -27 -28 -28 -28 -28 -28 -28 -29 -29 -29 -29 -29 -29 -29 -29 -28 -28
-29 -28 -28 -28 -28 -28 -27 -27 -27 -27 -27 -27 -27 -27 -26 -26 -26 -26 -26 -26 -26 -26 -26 -26 -27 -27 -27 -28 -28 -28 -28 -28 -29 -29 -29 -29 -29 -29 -29 -28 -28 -28 -28 -28
-30 -29 -29 -29 -28 -28 -28 -28 -27 -27 -27 -27 -27 -27 -27 -26 -26 -26 -26 -26 -26 -27 -27 -27 -28 -28 -28 -28 -28 -28 -28 -28 -28 -29 -29 -29 -29 -29 -29 -29 -28 -29 -29 -28
-30 -30 -29 -29 -29 -28 -28 -28 -28 -28 -28 -28 -27 -27 -27 -27 -27 -27 -27 -27 -27 -27 -28 -28 -28 -29 -28 -28 -28 -28 -28 -28 -28 -28 -29 -29 -29 -29 -29 -29 -29 -29 -29 -28
-30 -30 -30 -29 -29 -29 -29 -29 -29 -29 -28 -28 -28 -28 -27 -27 -27 -27 -27 -28 -28 -28 -28 -29 -29 -29 -28 -28 -28 -28 -28 -28 -28 -28 -28 -28 -28 -29 -29 -29 -29 -28 -28 -28
-31 -31 -30 -30 -30 -30 -30 -30 -29 -29 -29 -29 -29 -29 -29 -28 -28 -28 -28 -28 -28 -29 -29 -29 -29 -29 -29 -28 -28 -28 -28 -28 -28 -28 -29 -29 -29 -29 -29 -29 -29 -29 -29 -29
-31 -31 -30 -30 -30 -31 -31 -30 -30 -30 -30 -30 -30 -30 -29 -28 -28 -28 -29 -29 -29 -30 -29 -29 -29 -29 -29 -29 -29 -28 -28 -29 -28 -29 -29 -29 -29 -29 -29 -30 -30 -30 -30 -30
-31 -31 -31 -31 -31 -31 -31 -31 -30 -30 -30 -30 -30 -29 -29 -29 -29 -29 -29 -29 -30 -30 -30 -29 -29 -29 -29 -29 -29 -29 -29 -29 -29 -29 -29 -29 -30 -30 -30 -30 -30 -30 -30 -30

GFSNW_500_temp_138.txt.gz
Temp
-23 -23 -22 -23 -23 -23 -23 -22 -22 -21 -21 -22 -21 -20 -20 -18 -18 -18 -18 -18 -17 -17 -17 -18 -17 -17 -17 -17 -17 -17 -17 -17 -18 -18 -18 -19 -19 -19 -19 -19 -19 -19 -19 -19
-23 -22 -22 -23 -23 -23 -23 -23 -22 -22 -22 -22 -22 -21 -20 -19 -19 -19 -18 -18 -18 -17 -18 -17 -17 -17 -17 -16 -17 -17 -17 -17 -19 -19 -18 -19 -20 -19 -19 -19 -19 -19 -19 -20
-24 -23 -22 -23 -23 -23 -23 -23 -23 -22 -22 -22 -22 -21 -20 -19 -20 -20 -18 -19 -18 -18 -18 -17 -17 -17 -17 -17 -17 -17 -17 -18 -19 -19 -19 -20 -20 -20 -20 -20 -20 -19 -20 -19
-24 -22 -22 -22 -22 -22 -22 -23 -22 -22 -21 -21 -21 -21 -21 -20 -20 -19 -18 -18 -18 -18 -17 -17 -17 -17 -17 -17 -17 -17 -18 -19 -19 -20 -20 -21 -21 -20 -20 -20 -20 -20 -20 -20
-22 -22 -21 -21 -22 -22 -22 -22 -22 -21 -22 -22 -21 -21 -20 -20 -20 -19 -18 -18 -18 -18 -18 -18 -18 -18 -18 -18 -18 -18 -19 -20 -20 -20 -21 -22 -21 -21 -20 -20 -20 -20 -20 -20
-22 -21 -21 -21 -21 -21 -21 -22 -22 -22 -22 -21 -21 -21 -21 -21 -20 -20 -20 -19 -19 -18 -17 -18 -18 -18 -18 -18 -18 -19 -20 -20 -20 -21 -22 -22 -21 -21 -21 -21 -21 -21 -21 -21
-21 -20 -20 -20 -21 -21 -20 -21 -21 -21 -21 -21 -21 -22 -22 -21 -21 -20 -20 -19 -19 -18 -18 -18 -18 -18 -19 -20 -20 -20 -21 -21 -21 -22 -23 -22 -21 -21 -21 -21 -21 -21 -21 -22
-22 -21 -21 -21 -22 -22 -22 -21 -21 -21 -22 -22 -22 -22 -21 -21 -20 -20 -20 -19 -19 -19 -18 -19 -19 -19 -20 -20 -20 -21 -21 -21 -22 -23 -23 -22 -22 -22 -22 -21 -22 -21 -22 -22
-23 -22 -21 -21 -22 -22 -22 -21 -22 -22 -22 -22 -22 -21 -20 -20 -20 -20 -20 -20 -19 -19 -19 -20 -20 -20 -21 -20 -21 -21 -21 -22 -23 -23 -23 -22 -22 -22 -22 -22 -22 -23 -23 -23
-23 -23 -22 -21 -21 -22 -21 -21 -21 -21 -21 -21 -21 -21 -20 -20 -20 -20 -19 -19 -19 -19 -19 -20 -21 -21 -20 -21 -21 -22 -22 -22 -23 -24 -23 -23 -22 -22 -22 -23 -23 -23 -23 -23
-24 -23 -23 -23 -23 -22 -22 -22 -22 -22 -21 -22 -21 -20 -20 -20 -20 -20 -20 -21 -20 -20 -20 -21 -21 -21 -21 -22 -22 -22 -22 -23 -24 -24 -23 -23 -23 -23 -23 -23 -23 -23 -24 -24
-24 -23 -23 -23 -22 -22 -22 -21 -22 -22 -22 -21 -21 -21 -21 -21 -22 -21 -20 -21 -21 -21 -21 -21 -21 -22 -22 -22 -22 -23 -23 -23 -24 -24 -23 -23 -23 -23 -23 -23 -24 -24 -25 -25
-24 -23 -23 -23 -22 -22 -22 -22 -21 -21 -21 -22 -22 -22 -22 -21 -21 -21 -22 -21 -21 -21 -21 -22 -22 -23 -23 -23 -23 -23 -24 -24 -24 -24 -24 -23 -23 -24 -23 -24 -24 -25 -26 -26
-24 -24 -23 -23 -23 -22 -22 -22 -22 -21 -21 -21 -21 -22 -21 -21 -22 -22 -22 -21 -21 -22 -22 -23 -23 -23 -23 -24 -24 -24 -24 -24 -24 -24 -24 -24 -24 -24 -24 -25 -25 -26 -26 -26
-25 -24 -24 -23 -23 -23 -22 -22 -22 -23 -23 -22 -21 -22 -23 -22 -22 -22 -22 -22 -23 -23 -23 -23 -23 -24 -24 -24 -24 -24 -24 -24 -24 -24 -24 -24 -24 -24 -25 -26 -26 -26 -27 -27
-25 -25 -25 -24 -24 -24 -23 -23 -23 -22 -22 -23 -23 -23 -23 -23 -23 -23 -23 -23 -24 -24 -24 -24 -24 -24 -24 -24 -24 -24 -25 -24 -24 -24 -25 -24 -25 -26 -26 -26 -27 -27 -28 -29
-26 -26 -25 -25 -25 -24 -24 -24 -23 -23 -23 -24 -23 -23 -23 -23 -24 -24 -24 -24 -24 -24 -24 -24 -25 -25 -25 -25 -25 -25 -24 -24 -25 -25 -25 -26 -26 -26 -27 -27 -28 -29 -30 -29
-26 -26 -26 -25 -25 -25 -25 -25 -24 -24 -24 -24 -24 -24 -24 -24 -24 -24 -24 -24 -24 -25 -25 -25 -25 -25 -25 -25 -25 -25 -25 -25 -25 -26 -26 -26 -27 -28 -28 -28 -30 -30 -29 -29
-27 -27 -26 -26 -26 -26 -26 -25 -26 -25 -25 -25 -25 -25 -24 -25 -25 -25 -25 -25 -25 -26 -25 -25 -25 -25 -25 -25 -25 -25 -25 -26 -26 -27 -27 -28 -28 -28 -28 -29 -29 -29 -29 -29
-27 -27 -27 -27 -27 -27 -26 -26 -26 -26 -26 -26 -25 -25 -25 -25 -25 -25 -25 -26 -26 -25 -25 -25 -25 -25 -25 -25 -25 -26 -27 -27 -28 -28 -28 -28 -29 -29 -29 -29 -29 -29 -28 -28
-28 -28 -27 -27 -27 -27 -27 -26 -26 -26 -26 -26 -26 -26 -26 -26 -25 -26 -26 -26 -26 -26 -26 -25 -25 -25 -25 -26 -27 -27 -28 -28 -28 -28 -28 -28 -29 -29 -29 -29 -29 -28 -28 -28
-28 -28 -28 -27 -27 -27 -27 -27 -27 -26 -26 -26 -26 -26 -26 -26 -26 -26 -26 -26 -26 -26 -26 -26 -25 -25 -26 -27 -28 -28 -28 -28 -28 -28 -28 -28 -28 -29 -29 -29 -29 -29 -29 -29
-29 -28 -28 -28 -28 -28 -27 -27 -27 -27 -27 -27 -27 -26 -26 -26 -26 -26 -26 -26 -26 -26 -26 -26 -26 -26 -27 -28 -28 -28 -28 -28 -28 -28 -28 -28 -28 -29 -29 -29 -29 -29 -29 -29
-29 -29 -29 -29 -28 -28 -28 -28 -28 -27 -27 -27 -27 -27 -27 -26 -26 -26 -26 -26 -26 -26 -26 -27 -27 -28 -28 -28 -28 -28 -28 -28 -28 -28 -28 -28 -28 -29 -29 -29 -29 -29 -29 -29
-30 -29 -29 -29 -29 -29 -29 -28 -28 -28 -28 -27 -27 -27 -27 -27 -27 -27 -27 -27 -27 -27 -28 -28 -29 -29 -28 -28 -28 -28 -28 -28 -28 -28 -28 -29 -29 -29 -29 -29 -29 -29 -29 -29
-30 -30 -30 -29 -29 -29 -29 -29 -29 -28 -28 -28 -28 -28 -27 -27 -27 -27 -27 -28 -28 -29 -29 -29 -29 -29 -29 -29 -28 -28 -28 -28 -28 -28 -29 -29 -29 -29 -30 -30 -30 -30 -30 -30
-30 -30 -30 -30 -30 -29 -29 -29 -29 -29 -29 -29 -29 -29 -28 -28 -27 -27 -28 -29 -29 -29 -29 -29 -29 -29 -29 -29 -29 -28 -28 -28 -28 -29 -29 -29 -29 -29 -29 -30 -30 -30 -30 -30

GFSNW_500_temp_144.txt.gz
Temp
-27 -26 -26 -26 -26 -26 -26 -26 -26 -25 -25 -25 -24 -23 -22 -22 -22 -21 -21 -21 -20 -19 -19 -19 -18 -17 -17 -17 -17 -16 -17 -17 -17 -15 -17 -16 -15 -16 -16 -17 -17 -17 -18 -19
-28 -27 -27 -27 -26 -27 -27 -27 -27 -26 -26 -26 -25 -24 -23 -23 -22 -22 -21 -21 -20 -20 -19 -19 -19 -18 -18 -17 -17 -17 -16 -16 -17 -17 -16 -16 -16 -17 -17 -17 -18 -18 -19 -20
-29 -29 -29 -28 -27 -27 -27 -28 -28 -27 -26 -26 -26 -25 -24 -23 -22 -22 -22 -22 -21 -21 -20 -20 -19 -19 -18 -18 -18 -17 -17 -17 -17 -17 -17 -16 -16 -17 -17 -17 -18 -19 -19 -21
-29 -29 -29 -29 -29 -29 -29 -28 -28 -28 -27 -26 -26 -25 -24 -24 -23 -23 -22 -22 -22 -21 -21 -20 -20 -19 -19 -19 -18 -18 -17 -17 -17 -17 -17 -17 -16 -17 -18 -18 -18 -18 -20 -20
-29 -29 -29 -30 -30 -29 -29 -29 -28 -28 -28 -26 -26 -26 -25 -24 -23 -23 -22 -22 -21 -21 -21 -21 -20 -20 -20 -19 -19 -18 -18 -18 -18 -17 -17 -17 -17 -17 -18 -18 -18 -19 -20 -21
-29 -29 -29 -30 -30 -30 -29 -29 -29 -28 -27 -26 -26 -25 -24 -24 -23 -23 -23 -22 -23 -23 -21 -21 -21 -21 -21 -20 -19 -19 -19 -18 -18 -18 -18 -18 -17 -18 -18 -19 -19 -19 -20 -21
-28 -28 -28 -29 -29 -29 -29 -29 -29 -28 -27 -26 -25 -25 -24 -24 -23 -23 -23 -23 -22 -22 -23 -22 -22 -22 -21 -20 -19 -19 -20 -20 -19 -19 -19 -18 -19 -18 -19 -19 -20 -20 -21 -21
-27 -27 -27 -27 -27 -28 -28 -28 -28 -28 -26 -26 -26 -25 -23 -24 -24 -24 -23 -23 -23 -24 -23 -23 -22 -22 -22 -21 -20 -19 -20 -20 -20 -19 -19 -20 -19 -18 -20 -20 -20 -21 -22 -22
-26 -26 -26 -26 -26 -26 -27 -27 -27 -27 -27 -25 -25 -25 -24 -24 -24 -24 -24 -24 -24 -23 -23 -23 -22 -22 -22 -21 -20 -20 -20 -20 -20 -20 -20 -21 -20 -18 -21 -21 -21 -21 -22 -22
-26 -26 -26 -24 -24 -23 -24 -25 -26 -27 -25 -25 -25 -24 -23 -24 -24 -24 -24 -24 -24 -23 -23 -23 -23 -22 -22 -22 -21 -20 -20 -20 -20 -21 -21 -21 -19 -20 -21 -21 -21 -22 -23 -22
-26 -26 -24 -23 -22 -21 -22 -23 -24 -24 -24 -25 -24 -24 -24 -24 -24 -23 -23 -23 -24 -23 -23 -23 -22 -22 -22 -22 -21 -21 -21 -21 -21 -21 -22 -21 -19 -22 -21 -22 -23 -23 -23 -22
-25 -25 -24 -23 -23 -21 -22 -23 -24 -25 -25 -24 -24 -24 -24 -23 -24 -23 -23 -23 -23 -22 -22 -22 -23 -22 -22 -22 -22 -21 -21 -21 -21 -22 -22 -21 -21 -22 -23 -23 -23 -23 -23 -23
-25 -25 -24 -23 -23 -23 -23 -23 -23 -23 -24 -24 -24 -24 -23 -22 -22 -22 -22 -22 -22 -22 -22 -22 -22 -22 -22 -22 -21 -21 -21 -22 -22 -22 -22 -22 -23 -23 -24 -24 -23 -23 -23 -22
-25 -25 -25 -25 -23 -23 -24 -23 -23 -24 -23 -23 -23 -23 -22 -22 -23 -23 -23 -23 -23 -23 -22 -22 -23 -23 -22 -22 -23 -23 -23 -23 -23 -23 -23 -23 -24 -24 -24 -24 -23 -23 -23 -23
-25 -25 -25 -25 -24 -24 -24 -24 -24 -24 -24 -23 -23 -23 -24 -23 -23 -23 -23 -23 -23 -24 -24 -24 -23 -23 -24 -24 -24 -24 -23 -23 -23 -23 -23 -24 -24 -24 -24 -24 -23 -23 -23 -23
-24 -24 -23 -24 -25 -24 -23 -23 -24 -23 -23 -23 -23 -23 -23 -23 -24 -24 -24 -24 -25 -25 -24 -23 -23 -23 -23 -24 -24 -24 -24 -24 -24 -24 -24 -24 -24 -24 -24 -23 -24 -24 -24 -25
-25 -24 -24 -24 -23 -23 -23 -23 -23 -23 -23 -23 -23 -23 -24 -24 -25 -25 -25 -24 -24 -23 -24 -24 -24 -24 -23 -24 -24 -24 -24 -25 -25 -25 -24 -24 -24 -24 -24 -24 -25 -25 -26 -27
-25 -24 -24 -23 -23 -23 -23 -23 -23 -23 -23 -23 -23 -22 -23 -24 -24 -24 -24 -24 -24 -24 -24 -24 -24 -24 -24 -24 -25 -25 -25 -25 -25 -24 -24 -24 -24 -24 -25 -25 -26 -27 -27 -28
-26 -25 -24 -24 -24 -24 -23 -23 -23 -22 -22 -23 -23 -23 -23 -23 -24 -24 -24 -24 -24 -24 -24 -24 -24 -24 -24 -25 -25 -25 -25 -24 -24 -24 -24 -25 -25 -26 -26 -27 -27 -28 -28 -28
-26 -26 -25 -24 -24 -24 -23 -24 -24 -24 -24 -25 -25 -24 -24 -24 -24 -24 -24 -24 -24 -24 -24 -24 -25 -25 -26 -25 -25 -24 -24 -24 -24 -24 -25 -26 -26 -27 -28 -28 -28 -28 -28 -28
-26 -26 -25 -25 -25 -25 -25 -24 -24 -24 -25 -26 -26 -25 -25 -25 -25 -24 -24 -24 -25 -25 -25 -25 -25 -25 -25 -24 -24 -24 -24 -24 -25 -26 -27 -27 -28 -28 -28 -28 -28 -28 -28 -29
-27 -26 -26 -26 -26 -25 -25 -25 -25 -25 -25 -25 -25 -25 -25 -25 -24 -25 -25 -25 -25 -25 -25 -25 -25 -25 -24 -24 -24 -24 -25 -25 -26 -27 -27 -28 -28 -28 -28 -28 -28 -28 -28 -29
-27 -27 -26 -26 -26 -25 -25 -25 -25 -25 -25 -25 -25 -25 -25 -25 -25 -25 -25 -25 -25 -25 -25 -24 -24 -24 -24 -24 -24 -25 -26 -27 -27 -27 -28 -28 -28 -28 -28 -28 -28 -28 -29 -29
-27 -27 -27 -26 -26 -26 -25 -25 -25 -25 -25 -25 -25 -25 -25 -25 -25 -25 -25 -25 -25 -25 -24 -25 -24 -24 -24 -24 -25 -26 -27 -27 -28 -28 -28 -28 -28 -28 -28 -28 -28 -28 -28 -29
-27 -27 -27 -26 -26 -26 -26 -26 -26 -26 -26 -26 -25 -26 -26 -26 -26 -26 -25 -25 -25 -24 -25 -25 -24 -24 -25 -25 -26 -27 -27 -28 -28 -28 -28 -28 -28 -28 -28 -28 -28 -28 -28 -28
-28 -27 -27 -27 -27 -26 -26 -26 -26 -26 -26 -26 -26 -26 -26 -26 -25 -25 -25 -25 -25 -25 -25 -25 -25 -25 -25 -26 -27 -28 -28 -28 -28 -28 -28 -28 -28 -28 -28 -28 -28 -28 -28 -28
-29 -29 -28 -28 -28 -27 -27 -27 -27 -27 -27 -27 -27 -26 -26 -26 -25 -25 -25 -25 -25 -25 -25 -25 -25 -26 -27 -28 -28 -28 -28 -28 -28 -28 -28 -28 -28 -28 -28 -28 -28 -28 -28 -28

GFSNW_500_temp_147.txt.gz
Temp
-25 -25 -25 -26 -26 -26 -26 -26 -26 -25 -25 -25 -25 -25 -24 -23 -23 -23 -23 -22 -21 -21 -20 -20 -19 -19 -19 -18 -18 -18 -18 -18 -18 -17 -16 -16 -15 -16 -16 -16 -17 -17 -17 -18
-26 -26 -26 -26 -27 -27 -27 -27 -28 -27 -26 -27 -26 -25 -25 -24 -24 -23 -23 -22 -22 -22 -21 -22 -22 -20 -20 -19 -18 -18 -18 -18 -18 -18 -17 -16 -15 -16 -17 -17 -18 -17 -18 -18
-27 -27 -27 -27 -28 -28 -28 -28 -28 -28 -27 -27 -27 -26 -25 -25 -24 -24 -24 -23 -23 -22 -22 -22 -21 -21 -21 -20 -19 -19 -18 -18 -18 -17 -18 -17 -17 -17 -17 -17 -17 -18 -19 -19
-27 -27 -27 -28 -29 -30 -30 -30 -28 -28 -28 -27 -27 -26 -25 -25 -25 -25 -24 -24 -23 -22 -22 -21 -22 -21 -22 -21 -20 -20 -19 -18 -18 -18 -18 -18 -17 -17 -17 -17 -17 -18 -19 -20
-28 -28 -28 -29 -30 -31 -31 -31 -29 -28 -28 -28 -28 -27 -26 -25 -25 -25 -25 -24 -23 -23 -22 -22 -22 -22 -22 -21 -21 -21 -20 -19 -20 -19 -18 -19 -18 -18 -18 -17 -18 -18 -18 -20
-29 -29 -29 -29 -30 -30 -30 -30 -30 -30 -29 -29 -28 -28 -26 -25 -25 -25 -25 -24 -24 -23 -22 -23 -23 -23 -23 -23 -22 -21 -22 -21 -20 -19 -19 -19 -18 -18 -18 -18 -18 -19 -19 -19
-29 -29 -29 -30 -30 -30 -30 -30 -30 -30 -29 -29 -27 -28 -26 -26 -25 -25 -25 -25 -24 -23 -24 -23 -23 -23 -23 -22 -22 -21 -21 -21 -21 -20 -20 -19 -18 -19 -19 -19 -19 -20 -20 -19
-29 -29 -29 -29 -29 -29 -29 -30 -30 -30 -29 -29 -29 -27 -27 -26 -27 -26 -25 -25 -24 -25 -24 -24 -23 -23 -22 -22 -22 -22 -21 -21 -21 -21 -20 -20 -19 -18 -19 -20 -20 -20 -19 -20
-28 -28 -28 -28 -29 -29 -29 -29 -29 -29 -29 -29 -29 -27 -27 -26 -26 -26 -25 -25 -25 -24 -24 -24 -24 -23 -22 -22 -22 -22 -22 -22 -22 -21 -21 -20 -18 -20 -19 -21 -19 -19 -21 -22
-27 -27 -27 -27 -28 -28 -28 -28 -28 -29 -29 -29 -29 -28 -27 -27 -26 -26 -26 -26 -25 -24 -24 -24 -24 -24 -23 -23 -23 -22 -22 -22 -22 -22 -21 -21 -20 -20 -21 -20 -20 -21 -22 -23
-27 -27 -27 -27 -27 -27 -27 -28 -28 -28 -28 -28 -29 -28 -28 -27 -26 -26 -26 -25 -25 -25 -24 -24 -23 -23 -23 -23 -23 -22 -23 -22 -22 -22 -21 -21 -20 -21 -20 -21 -22 -22 -23 -23
-26 -26 -27 -27 -27 -26 -27 -27 -27 -27 -28 -28 -28 -28 -27 -26 -26 -26 -25 -25 -25 -24 -24 -24 -24 -23 -23 -22 -22 -23 -23 -23 -23 -22 -22 -21 -20 -21 -22 -22 -23 -23 -24 -24
-26 -26 -25 -26 -27 -26 -25 -25 -25 -27 -27 -28 -28 -27 -26 -26 -26 -25 -25 -25 -25 -24 -24 -23 -23 -23 -23 -23 -22 -23 -23 -23 -22 -22 -22 -21 -22 -21 -22 -23 -24 -23 -24 -24
-25 -25 -24 -25 -23 -22 -23 -23 -25 -26 -26 -26 -26 -26 -25 -25 -25 -25 -24 -24 -24 -24 -24 -24 -24 -23 -23 -23 -23 -23 -23 -23 -23 -23 -23 -22 -22 -23 -24 -24 -24 -24 -24 -24
-25 -24 -24 -23 -23 -23 -22 -23 -23 -25 -25 -25 -25 -25 -25 -25 -25 -25 -24 -24 -24 -24 -24 -24 -24 -24 -24 -24 -24 -24 -24 -24 -23 -23 -23 -23 -23 -24 -24 -25 -24 -24 -23 -23
-25 -25 -24 -24 -24 -23 -23 -23 -25 -25 -25 -25 -24 -25 -24 -24 -24 -24 -24 -24 -24 -24 -24 -24 -24 -24 -24 -24 -24 -25 -25 -24 -24 -24 -24 -24 -25 -25 -25 -25 -24 -24 -24 -24
-25 -25 -24 -24 -24 -24 -24 -23 -23 -24 -25 -25 -25 -25 -25 -25 -25 -25 -24 -24 -25 -24 -24 -24 -24 -24 -24 -25 -25 -25 -25 -24 -24 -24 -24 -24 -25 -25 -24 -24 -24 -24 -24 -25
-25 -25 -24 -23 -24 -24 -24 -24 -24 -24 -25 -25 -25 -25 -25 -24 -24 -24 -25 -25 -25 -24 -24 -25 -25 -25 -24 -24 -24 -25 -25 -24 -24 -25 -25 -25 -25 -24 -24 -24 -25 -25 -26 -26
-25 -25 -25 -25 -25 -25 -24 -24 -24 -24 -25 -24 -24 -24 -24 -24 -24 -24 -24 -25 -25 -25 -25 -25 -25 -24 -24 -24 -24 -24 -24 -25 -25 -24 -24 -24 -25 -25 -25 -26 -26 -27 -27 -27
-26 -25 -25 -24 -24 -24 -24 -24 -25 -24 -24 -24 -24 -23 -23 -24 -24 -24 -25 -25 -25 -25 -25 -25 -24 -24 -24 -24 -24 -24 -25 -25 -25 -25 -25 -25 -25 -26 -27 -27 -27 -27 -28 -28
-26 -26 -26 -25 -25 -25 -25 -25 -25 -25 -24 -25 -25 -25 -24 -25 -25 -25 -25 -25 -25 -25 -24 -24 -24 -24 -24 -24 -25 -25 -25 -25 -25 -25 -25 -26 -26 -27 -27 -27 -27 -28 -28 -28
-27 -27 -26 -26 -26 -26 -26 -25 -25 -25 -26 -26 -26 -26 -26 -25 -25 -25 -25 -25 -25 -24 -24 -24 -24 -24 -24 -25 -25 -25 -25 -25 -25 -25 -26 -27 -27 -27 -27 -27 -27 -28 -28 -28
-27 -27 -27 -27 -26 -26 -25 -25 -25 -24 -25 -25 -26 -26 -26 -26 -25 -25 -25 -25 -25 -25 -25 -24 -24 -25 -25 -25 -25 -25 -25 -25 -26 -27 -27 -27 -27 -27 -27 -27 -27 -27 -28 -28
-27 -27 -27 -26 -26 -25 -26 -25 -25 -25 -26 -26 -26 -26 -25 -25 -25 -25 -25 -25 -25 -24 -25 -25 -25 -25 -25 -24 -25 -25 -25 -26 -27 -27 -27 -27 -27 -27 -27 -27 -27 -27 -27 -28
-27 -27 -26 -26 -26 -26 -26 -25 -25 -25 -26 -26 -25 -26 -25 -25 -25 -25 -25 -25 -25 -24 -25 -25 -25 -25 -24 -25 -25 -25 -26 -27 -27 -28 -27 -28 -28 -27 -27 -27 -27 -27 -27 -28
-27 -27 -27 -26 -26 -26 -26 -26 -26 -25 -26 -26 -26 -26 -26 -26 -25 -25 -25 -25 -25 -25 -25 -25 -24 -25 -25 -25 -25 -26 -27 -27 -28 -28 -28 -28 -27 -27 -27 -27 -27 -27 -27 -28
-27 -27 -27 -27 -27 -26 -26 -27 -26 -26 -26 -26 -26 -26 -25 -26 -26 -25 -25 -25 -25 -25 -25 -25 -25 -25 -25 -25 -26 -27 -27 -28 -28 -28 -28 -28 -27 -27 -27 -27 -27 -27 -28 -28